This demonstration page uses our WeatherBlox Daily Observations layout. Learn more.

Left ArrowRight Arrow

Hourly Observations for May 23, 2021

Temp ( °F °C ) Dew Point ( °F °C ) Humidity (%) Winds ( mph kmh ) Pressure ( in mb ) Visibility ( mi km ) Precip ( " mm )
12:15 am 00:15 Mostly Cloudy 75 24 55 13 50 50 WNW 3 6 30.15 1021 10 16 0.00 0.00
12:35 am 00:35 Mostly Cloudy 73 23 55 13 53 53 WNW 6 9 30.15 1021 10 16 0.00 0.00
12:55 am 00:55 Cloudy 73 23 55 13 53 53 WNW 3 6 30.14 1021 10 16 0.00 0.00
1:15 am 01:15 Cloudy 73 23 55 13 53 53 NW 7 11 30.14 1021 10 16 0.00 0.00
1:35 am 01:35 Mostly Cloudy 73 23 55 13 53 53 WNW 7 11 30.13 1020 10 16 0.00 0.00
1:55 am 01:55 Mostly Cloudy 72 22 55 13 57 57 NW 6 9 30.13 1020 10 16 0.00 0.00
2:15 am 02:15 Mostly Cloudy 73 23 55 13 53 53 NW 3 6 30.12 1020 10 16 0.00 0.00
2:35 am 02:35 Partly Cloudy 73 23 55 13 53 53 NW 6 9 30.12 1020 10 16 0.00 0.00
2:55 am 02:55 Clear 73 23 57 14 57 57 WNW 7 11 30.11 1020 10 16 0.00 0.00
3:15 am 03:15 Clear 72 22 59 15 65 65 WNW 7 11 30.11 1020 10 16 0.00 0.00
3:35 am 03:35 Clear 72 22 59 15 65 65 WNW 8 13 30.11 1020 10 16 0.00 0.00
3:55 am 03:55 Clear 72 22 59 15 65 65 WNW 10 17 30.10 1019 10 16 0.00 0.00
4:15 am 04:15 Clear 72 22 59 15 65 65 NW 9 15 30.10 1019 10 16 0.00 0.00
4:35 am 04:35 Partly Cloudy 72 22 59 15 65 65 WNW 6 9 30.10 1019 10 16 0.00 0.00
4:55 am 04:55 Cloudy 72 22 59 15 65 65 NW 3 6 30.11 1020 10 16 0.00 0.00
5:15 am 05:15 Cloudy 72 22 59 15 65 65 NW 9 15 30.10 1019 10 16 0.00 0.00
5:35 am 05:35 Cloudy 72 22 59 15 65 65 NW 7 11 30.10 1019 10 16 0.00 0.00
5:55 am 05:55 Cloudy 72 22 59 15 65 65 NW 6 9 30.10 1019 10 16 0.00 0.00
6:15 am 06:15 Cloudy 72 22 59 15 65 65 NW 6 9 30.11 1020 10 16 0.00 0.00
6:35 am 06:35 Cloudy 72 22 59 15 65 65 WNW 7 11 30.11 1020 10 16 0.00 0.00
6:55 am 06:55 Mostly Cloudy 72 22 59 15 65 65 NW 6 9 30.12 1020 10 16 0.00 0.00
7:15 am 07:15 Partly Cloudy 73 23 59 15 61 61 WNW 7 11 30.11 1020 10 16 0.00 0.00
7:35 am 07:35 Partly Cloudy 73 23 59 15 61 61 W 6 9 30.11 1020 10 16 0.00 0.00
7:55 am 07:55 Partly Cloudy 73 23 59 15 61 61 WNW 5 7 30.11 1020 10 16 0.00 0.00
8:15 am 08:15 Partly Cloudy 73 23 59 15 61 61 WNW 8 13 30.11 1020 10 16 0.00 0.00
8:35 am 08:35 Sunny 77 25 61 16 57 57 W 5 7 30.09 1019 10 16 0.00 0.00
8:55 am 08:55 Sunny 77 25 61 16 57 57 NW 10 17 30.09 1019 10 16 0.00 0.00
9:15 am 09:15 Sunny 79 26 59 15 51 51 NW 13 20 30.09 1019 10 16 0.00 0.00
9:35 am 09:35 Sunny 81 27 59 15 48 48 NW 17 28 30.09 1019 10 16 0.00 0.00
9:55 am 09:55 Sunny 81 27 61 16 51 51 NW 12 19 30.08 1019 10 16 0.00 0.00
10:15 am 10:15 Partly Cloudy 82 28 63 17 51 51 NW 10 17 30.08 1019 10 16 0.00 0.00
10:35 am 10:35 Sunny 84 29 61 16 45 45 NNW 9 15 30.07 1018 10 16 0.00 0.00
10:55 am 10:55 Sunny 84 29 63 17 48 48 NW 13 20 30.07 1018 10 16 0.00 0.00
11:15 am 11:15 Sunny 86 30 63 17 46 46 NNW 10 17 30.07 1018 10 16 0.00 0.00
11:35 am 11:35 Sunny 86 30 63 17 46 46 NNW 14 22 30.06 1018 10 16 0.00 0.00
11:55 am 11:55 Sunny 86 30 63 17 46 46 NNW 13 20 30.06 1018 10 16 0.00 0.00
12:15 pm 12:15 Sunny 86 30 63 17 46 46 WNW 17 28 30.05 1018 10 16 0.00 0.00
12:35 pm 12:35 Sunny 86 30 63 17 46 46 NNW 12 19 30.04 1017 10 16 0.00 0.00
12:55 pm 12:55 Sunny 88 31 61 16 40 40 N 16 26 30.04 1017 10 16 0.00 0.00
1:15 pm 13:15 Partly Cloudy 88 31 63 17 43 43 NNW 14 22 30.03 1017 10 16 0.00 0.00
1:35 pm 13:35 Mostly Cloudy 86 30 63 17 46 46 NNW 15 24 30.02 1017 10 16 0.00 0.00
1:55 pm 13:55 Partly Cloudy 88 31 63 17 43 43 WNW 12 19 30.02 1016 10 16 0.00 0.00
2:15 pm 14:15 Mostly Cloudy 88 31 64 18 46 46 WNW 13 20 30.01 1016 10 16 0.00 0.00
2:35 pm 14:35 Partly Cloudy 90 32 61 16 38 38 NNW 14 22 30.00 1016 10 16 0.00 0.00
2:55 pm 14:55 Partly Cloudy 88 31 61 16 40 40 NW 18 30 30.00 1016 10 16 0.00 0.00
3:15 pm 15:15 Partly Cloudy 90 32 63 17 41 41 NNW 14 22 29.99 1015 10 16 0.00 0.00
3:35 pm 15:35 Partly Cloudy 90 32 63 17 41 41 NNW 15 24 29.99 1015 10 16 0.00 0.00
3:55 pm 15:55 Partly Cloudy 90 32 63 17 41 41 NNW 17 28 29.98 1015 10 16 0.00 0.00
4:15 pm 16:15 Partly Cloudy 88 31 63 17 43 43 NW 17 28 29.98 1015 10 16 0.00 0.00
4:35 pm 16:35 Mostly Cloudy 90 32 63 17 41 41 NNW 15 24 29.97 1015 10 16 0.00 0.00
4:55 pm 16:55 Mostly Cloudy 90 32 63 17 41 41 NNW 12 19 29.97 1015 10 16 0.00 0.00
5:15 pm 17:15 Partly Cloudy 90 32 63 17 41 41 NW 10 17 29.97 1015 10 16 0.00 0.00
5:35 pm 17:35 Partly Cloudy 90 32 63 17 41 41 NNW 9 15 29.97 1015 10 16 0.00 0.00
5:55 pm 17:55 Partly Cloudy 90 32 63 17 41 41 NNW 9 15 29.97 1015 10 16 0.00 0.00
6:15 pm 18:15 Sunny 90 32 63 17 41 41 NW 12 19 29.97 1015 10 16 0.00 0.00
6:35 pm 18:35 Sunny 88 31 63 17 43 43 NW 10 17 29.97 1015 10 16 0.00 0.00
6:55 pm 18:55 Sunny 88 31 63 17 43 43 NW 13 20 29.98 1015 10 16 0.00 0.00
7:15 pm 19:15 Sunny 88 31 64 18 46 46 NW 9 15 29.98 1015 10 16 0.00 0.00
7:35 pm 19:35 Sunny 86 30 64 18 49 49 NW 6 9 29.98 1015 10 16 0.00 0.00
7:55 pm 19:55 Sunny 84 29 64 18 51 51 NW 5 7 29.99 1016 10 16 0.00 0.00
8:15 pm 20:15 Sunny 82 28 64 18 55 55 WNW 6 9 30.00 1016 10 16 0.00 0.00
8:35 pm 20:35 Clear 82 28 63 17 51 51 NW 6 9 30.00 1016 10 16 0.00 0.00
8:55 pm 20:55 Clear 82 28 63 17 51 51 NW 9 15 30.01 1016 10 16 0.00 0.00
9:15 pm 21:15 Clear 82 28 63 17 51 51 NNW 9 15 30.01 1016 10 16 0.00 0.00
9:35 pm 21:35 Clear 81 27 63 17 54 54 NW 6 9 30.02 1017 10 16 0.00 0.00
9:55 pm 21:55 Clear 81 27 63 17 54 54 NW 7 11 30.02 1017 10 16 0.00 0.00
10:15 pm 22:15 Clear 81 27 63 17 54 54 Calm 30.03 1017 10 16 0.00 0.00
10:35 pm 22:35 Clear 81 27 63 17 54 54 ESE 6 9 30.04 1017 10 16 0.00 0.00
10:55 pm 22:55 Clear 81 27 63 17 54 54 NNW 5 7 30.04 1017 10 16 0.00 0.00
11:15 pm 23:15 Clear 81 27 63 17 54 54 WNW 3 6 30.05 1018 10 16 0.00 0.00
11:35 pm 23:35 Clear 75 24 64 18 69 69 NW 6 9 30.06 1018 10 16 0.00 0.00
11:55 pm 23:55 Clear 75 24 64 18 69 69 WNW 8 13 30.06 1018 10 16 0.00 0.00

Powered by AerisWeather